| time (UTC) | temp C | wind direction | speed KPH | gust KPH | rain 1hr cm | rain 24hr cm | rain mn cm | humidity % | barometer mb |
| 20260906112929 | 24 | 339 | 4.8 | 4.8 | 0.00 | 0.00 | 0.00 | 91 | 1012.2 |
| 20260906112425 | 24 | 43 | 4.8 | 8.0 | 0.00 | 0.00 | 0.00 | 91 | 1012.3 |
| 20260906111920 | 24 | 23 | 3.2 | 4.8 | 0.00 | 0.00 | 0.00 | 91 | 1012.3 |
| 20260906111420 | 24 | 36 | 4.8 | 4.8 | 0.00 | 0.00 | 0.00 | 91 | 1012.1 |
| 20260906110914 | 24 | 66 | 4.8 | 8.0 | 0.00 | 0.00 | 0.00 | 91 | 1012.0 |
| 20260906110409 | 24 | 332 | 4.8 | 8.0 | 0.00 | 0.00 | 0.00 | 90 | 1012.0 |
| 20260906105909 | 24 | 6 | 4.8 | 8.0 | 0.00 | 0.00 | 0.00 | 90 | 1012.0 |
| 20260906105405 | 25 | 34 | 1.6 | 3.2 | 0.00 | 0.00 | 0.00 | 90 | 1011.9 |
| 20260906104901 | 25 | 40 | 3.2 | 3.2 | 0.00 | 0.00 | 0.00 | 90 | 1012.0 |
| 20260906104359 | 25 | 52 | 8.0 | 9.7 | 0.00 | 0.00 | 0.00 | 90 | 1011.9 |
| 20260906103857 | 25 | 6 | 3.2 | 3.2 | 0.00 | 0.00 | 0.00 | 90 | 1011.6 |
| 20260906103356 | 25 | 41 | 4.8 | 4.8 | 0.00 | 0.00 | 0.00 | 90 | 1011.7 |
| 20260906102852 | 25 | 37 | 4.8 | 8.0 | 0.00 | 0.00 | 0.00 | 90 | 1011.7 |
| 20260906102352 | 25 | 37 | 8.0 | 9.7 | 0.00 | 0.00 | 0.00 | 90 | 1011.7 |
| 20260906101846 | 25 | 19 | 4.8 | 4.8 | 0.00 | 0.00 | 0.00 | 89 | 1011.7 |
| 20260906101342 | 25 | 49 | 0.0 | 0.0 | 0.00 | 0.00 | 0.00 | 89 | 1011.5 |
| 20260906100837 | 25 | 13 | 4.8 | 4.8 | 0.00 | 0.00 | 0.00 | 89 | 1011.2 |
| 20260906100336 | 25 | 23 | 4.8 | 4.8 | 0.00 | 0.00 | 0.00 | 89 | 1011.3 |
| 20260906095831 | 25 | 3 | 6.4 | 9.7 | 0.00 | 0.00 | 0.00 | 89 | 1011.2 |
| 20260906095327 | 25 | 30 | 9.7 | 12.9 | 0.00 | 0.00 | 0.00 | 89 | 1011.3 |
| 20260906094826 | 25 | 41 | 6.4 | 8.0 | 0.00 | 0.00 | 0.00 | 89 | 1011.2 |
| 20260906094321 | 25 | 2 | 3.2 | 3.2 | 0.00 | 0.00 | 0.00 | 89 | 1011.3 |
| 20260906093817 | 25 | 22 | 1.6 | 3.2 | 0.00 | 0.00 | 0.00 | 88 | 1011.5 |
| 20260906093313 | 25 | 23 | 1.6 | 3.2 | 0.00 | 0.00 | 0.00 | 88 | 1011.3 |
| 20260906092807 | 25 | 58 | 3.2 | 3.2 | 0.00 | 0.00 | 0.00 | 88 | 1011.3 |
| 20260906092301 | 25 | 13 | 6.4 | 8.0 | 0.00 | 0.00 | 0.00 | 88 | 1011.2 |
| 20260906091757 | 25 | 17 | 6.4 | 8.0 | 0.00 | 0.00 | 0.00 | 88 | 1011.3 |
| 20260906091253 | 25 | 35 | 4.8 | 8.0 | 0.00 | 0.00 | 0.00 | 87 | 1011.1 |
| 20260906090749 | 26 | 42 | 1.6 | 3.2 | 0.00 | 0.00 | 0.00 | 87 | 1011.0 |
| 20260906090248 | 26 | 33 | 4.8 | 4.8 | 0.00 | 0.00 | 0.00 | 87 | 1011.2 |
| 20260906085748 | 26 | 12 | 4.8 | 4.8 | 0.00 | 0.00 | 0.00 | 86 | 1011.0 |
| 20260906085242 | 26 | 23 | 9.7 | 9.7 | 0.00 | 0.00 | 0.00 | 86 | 1011.2 |
| 20260906084736 | 26 | 36 | 3.2 | 3.2 | 0.00 | 0.00 | 0.00 | 86 | 1011.1 |
| 20260906084231 | 26 | 13 | 3.2 | 3.2 | 0.00 | 0.00 | 0.00 | 86 | 1011.2 |
| 20260906083726 | 26 | 48 | 1.6 | 3.2 | 0.00 | 0.00 | 0.00 | 86 | 1011.2 |
| 20260906083220 | 26 | 35 | 4.8 | 4.8 | 0.00 | 0.00 | 0.00 | 85 | 1010.9 |
| 20260906082715 | 26 | 44 | 6.4 | 8.0 | 0.00 | 0.00 | 0.00 | 85 | 1011.0 |
| 20260906082205 | 26 | 40 | 4.8 | 4.8 | 0.00 | 0.00 | 0.00 | 85 | 1011.1 |
| 20260906081701 | 26 | 2 | 3.2 | 4.8 | 0.00 | 0.00 | 0.00 | 84 | 1011.2 |
| 20260906081150 | 26 | 352 | 4.8 | 4.8 | 0.00 | 0.00 | 0.00 | 84 | 1011.1 |
| 20260906080647 | 26 | 16 | 3.2 | 3.2 | 0.00 | 0.00 | 0.00 | 83 | 1010.9 |
| 20260906080142 | 26 | 20 | 3.2 | 3.2 | 0.00 | 0.00 | 0.00 | 83 | 1011.0 |
| 20260906075636 | 26 | 19 | 3.2 | 3.2 | 0.00 | 0.00 | 0.00 | 83 | 1010.9 |
| 20260906075131 | 26 | 38 | 3.2 | 3.2 | 0.00 | 0.00 | 0.00 | 83 | 1010.9 |
| 20260906074626 | 26 | 36 | 1.6 | 3.2 | 0.00 | 0.00 | 0.00 | 83 | 1010.9 |
| 20260906074125 | 26 | 22 | 1.6 | 1.6 | 0.00 | 0.00 | 0.00 | 82 | 1010.8 |
| 20260906073620 | 26 | 7 | 1.6 | 3.2 | 0.00 | 0.00 | 0.00 | 82 | 1011.0 |
| 20260906073116 | 26 | 18 | 3.2 | 3.2 | 0.00 | 0.00 | 0.00 | 82 | 1010.9 |
| 20260906072611 | 26 | 355 | 3.2 | 3.2 | 0.00 | 0.00 | 0.00 | 82 | 1010.9 |
| 20260906072106 | 26 | 26 | 0.0 | 0.0 | 0.00 | 0.00 | 0.00 | 82 | 1010.9 |
| 20260906071602 | 27 | 42 | 1.6 | 1.6 | 0.00 | 0.00 | 0.00 | 82 | 1011.0 |
| 20260906071057 | 27 | 352 | 1.6 | 3.2 | 0.00 | 0.00 | 0.00 | 81 | 1010.9 |
| 20260906070554 | 27 | 358 | 3.2 | 3.2 | 0.00 | 0.00 | 0.00 | 80 | 1011.0 |
| 20260906070049 | 27 | 63 | 0.0 | 0.0 | 0.00 | 0.00 | 0.00 | 79 | 1010.8 |
| 20260906065548 | 27 | 61 | 1.6 | 1.6 | 0.00 | 0.00 | 0.00 | 79 | 1010.9 |
| 20260906065044 | 27 | 84 | 0.0 | 1.6 | 0.00 | 0.00 | 0.00 | 80 | 1010.9 |
| 20260906064539 | 27 | 92 | 1.6 | 3.2 | 0.00 | 0.00 | 0.00 | 80 | 1010.9 |
| 20260906064029 | 27 | 59 | 0.0 | 0.0 | 0.00 | 0.00 | 0.00 | 80 | 1010.9 |
| 20260906063524 | 27 | 34 | 3.2 | 4.8 | 0.00 | 0.00 | 0.00 | 80 | 1011.0 |
| 20260906063020 | 27 | 70 | 0.0 | 1.6 | 0.00 | 0.00 | 0.00 | 81 | 1011.1 |
| 20260906062515 | 27 | 62 | 3.2 | 3.2 | 0.00 | 0.00 | 0.00 | 80 | 1011.1 |
| 20260906062010 | 27 | 46 | 3.2 | 3.2 | 0.00 | 0.00 | 0.00 | 80 | 1011.1 |
| 20260906061506 | 27 | 41 | 4.8 | 4.8 | 0.00 | 0.00 | 0.00 | 80 | 1011.3 |
| 20260906061005 | 27 | 57 | 6.4 | 9.7 | 0.00 | 0.00 | 0.00 | 79 | 1011.1 |
| 20260906060502 | 27 | 43 | 3.2 | 3.2 | 0.00 | 0.00 | 0.00 | 78 | 1011.6 |
| 20260906055953 | 27 | 45 | 0.0 | 1.6 | 0.00 | 0.00 | 0.00 | 75 | 1011.4 |
| 20260906055448 | 27 | 41 | 3.2 | 3.2 | 0.00 | 0.00 | 0.00 | 74 | 1011.5 |
| 20260906054944 | 28 | 357 | 4.8 | 4.8 | 0.00 | 0.00 | 0.00 | 73 | 1011.5 |
| 20260906054443 | 28 | 13 | 3.2 | 3.2 | 0.00 | 0.00 | 0.00 | 72 | 1011.3 |
| 20260906053939 | 28 | 67 | 0.0 | 0.0 | 0.00 | 0.00 | 0.00 | 72 | 1011.4 |
| 20260906053436 | 28 | 90 | 0.0 | 1.6 | 0.00 | 0.00 | 0.00 | 72 | 1011.4 |
| 20260906052931 | 28 | 105 | 1.6 | 3.2 | 0.00 | 0.00 | 0.00 | 72 | 1011.4 |
| 20260906052427 | 28 | 105 | 1.6 | 1.6 | 0.00 | 0.00 | 0.00 | 72 | 1011.4 |
| 20260906051924 | 28 | 138 | 1.6 | 1.6 | 0.00 | 0.00 | 0.00 | 72 | 1011.3 |
| 20260906051423 | 28 | 78 | 3.2 | 3.2 | 0.00 | 0.00 | 0.00 | 72 | 1011.4 |
| 20260906050919 | 28 | 85 | 1.6 | 3.2 | 0.00 | 0.00 | 0.00 | 72 | 1011.6 |
| 20260906050414 | 28 | 120 | 4.8 | 8.0 | 0.00 | 0.00 | 0.00 | 72 | 1011.5 |
| 20260906045913 | 28 | 190 | 0.0 | 1.6 | 0.00 | 0.00 | 0.00 | 73 | 1011.4 |
| 20260906045412 | 29 | 134 | 6.4 | 9.7 | 0.00 | 0.00 | 0.00 | 74 | 1011.5 |
| 20260906044908 | 29 | 347 | 0.0 | 1.6 | 0.00 | 0.00 | 0.00 | 75 | 1011.2 |
| 20260906044403 | 29 | 74 | 0.0 | 0.0 | 0.00 | 0.00 | 0.00 | 75 | 1011.1 |
| 20260906043859 | 29 | 79 | 0.0 | 0.0 | 0.00 | 0.00 | 0.00 | 75 | 1011.1 |
| 20260906043354 | 29 | 36 | 0.0 | 1.6 | 0.00 | 0.00 | 0.00 | 75 | 1011.0 |
| 20260906042849 | 29 | 44 | 3.2 | 3.2 | 0.00 | 0.00 | 0.00 | 75 | 1010.8 |
| 20260906042348 | 29 | 28 | 0.0 | 1.6 | 0.00 | 0.00 | 0.00 | 74 | 1010.9 |
| 20260906041843 | 29 | 48 | 0.0 | 0.0 | 0.00 | 0.00 | 0.00 | 74 | 1010.8 |
| 20260906041340 | 30 | 44 | 0.0 | 0.0 | 0.00 | 0.00 | 0.00 | 73 | 1010.8 |
| 20260906040839 | 30 | 86 | 1.6 | 1.6 | 0.00 | 0.00 | 0.00 | 73 | 1010.9 |
| 20260906040334 | 30 | 67 | 1.6 | 1.6 | 0.00 | 0.00 | 0.00 | 72 | 1010.8 |
| 20260906035830 | 30 | 43 | 0.0 | 0.0 | 0.00 | 0.00 | 0.00 | 72 | 1010.9 |
| 20260906035325 | 30 | 49 | 0.0 | 0.0 | 0.00 | 0.00 | 0.00 | 72 | 1010.7 |
| 20260906034821 | 30 | 58 | 0.0 | 0.0 | 0.00 | 0.00 | 0.00 | 71 | 1010.7 |
| 20260906034320 | 30 | 61 | 0.0 | 0.0 | 0.00 | 0.00 | 0.00 | 72 | 1010.9 |
| 20260906033817 | 30 | 58 | 1.6 | 1.6 | 0.00 | 0.00 | 0.00 | 72 | 1010.8 |
| 20260906033315 | 30 | 46 | 0.0 | 1.6 | 0.00 | 0.00 | 0.00 | 72 | 1010.8 |
| 20260906032812 | 30 | 73 | 1.6 | 1.6 | 0.00 | 0.00 | 0.00 | 72 | 1010.9 |
| 20260906032307 | 30 | 61 | 1.6 | 1.6 | 0.00 | 0.00 | 0.00 | 71 | 1010.7 |
| 20260906031802 | 30 | 69 | 1.6 | 3.2 | 0.00 | 0.00 | 0.00 | 71 | 1010.7 |
| 20260906031253 | 30 | 73 | 1.6 | 1.6 | 0.00 | 0.00 | 0.00 | 71 | 1010.5 |
| 20260906030753 | 30 | 49 | 1.6 | 1.6 | 0.00 | 0.00 | 0.00 | 70 | 1010.5 |
| 20260906030248 | 30 | 62 | 1.6 | 3.2 | 0.00 | 0.00 | 0.00 | 70 | 1010.7 |
| 20260906025747 | 31 | 60 | 3.2 | 3.2 | 0.00 | 0.00 | 0.00 | 69 | 1010.7 |
| 20260906025247 | 31 | 52 | 0.0 | 0.0 | 0.00 | 0.00 | 0.00 | 69 | 1010.3 |
| 20260906024746 | 31 | 53 | 0.0 | 0.0 | 0.00 | 0.00 | 0.00 | 69 | 1010.2 |
| 20260906024240 | 31 | 53 | 0.0 | 0.0 | 0.00 | 0.00 | 0.00 | 69 | 1010.4 |
| 20260906023735 | 31 | 63 | 0.0 | 1.6 | 0.00 | 0.00 | 0.00 | 68 | 1010.2 |
| 20260906023230 | 31 | 65 | 1.6 | 1.6 | 0.00 | 0.00 | 0.00 | 68 | 1010.1 |
| 20260906022726 | 31 | 39 | 0.0 | 1.6 | 0.00 | 0.00 | 0.00 | 67 | 1010.1 |
| 20260906022221 | 31 | 52 | 1.6 | 1.6 | 0.00 | 0.00 | 0.00 | 67 | 1009.8 |
| 20260906021717 | 31 | 59 | 0.0 | 1.6 | 0.00 | 0.00 | 0.00 | 67 | 1009.8 |
| 20260906021216 | 31 | 64 | 3.2 | 3.2 | 0.00 | 0.00 | 0.00 | 66 | 1009.7 |
| 20260906020711 | 31 | 43 | 1.6 | 1.6 | 0.00 | 0.00 | 0.00 | 66 | 1009.9 |
| 20260906020206 | 31 | 67 | 0.0 | 0.0 | 0.00 | 0.00 | 0.00 | 65 | 1009.9 |
| 20260906015706 | 31 | 51 | 1.6 | 3.2 | 0.00 | 0.00 | 0.00 | 64 | 1009.9 |
| 20260906015158 | 32 | 58 | 4.8 | 4.8 | 0.00 | 0.00 | 0.00 | 63 | 1009.9 |
| 20260906014653 | 32 | 71 | 0.0 | 0.0 | 0.00 | 0.00 | 0.00 | 63 | 1010.0 |
| 20260906014149 | 32 | 56 | 3.2 | 3.2 | 0.00 | 0.00 | 0.00 | 62 | 1009.9 |
| 20260906013644 | 32 | 41 | 0.0 | 0.0 | 0.00 | 0.00 | 0.00 | 62 | 1009.8 |
| 20260906013140 | 32 | 56 | 1.6 | 3.2 | 0.00 | 0.00 | 0.00 | 61 | 1009.8 |
| 20260906012639 | 32 | 52 | 0.0 | 1.6 | 0.00 | 0.00 | 0.00 | 61 | 1009.7 |
| 20260906012129 | 32 | 72 | 1.6 | 3.2 | 0.00 | 0.00 | 0.00 | 61 | 1009.6 |
| 20260906011624 | 32 | 58 | 0.0 | 0.0 | 0.00 | 0.00 | 0.00 | 61 | 1009.6 |
| 20260906011118 | 32 | 49 | 0.0 | 0.0 | 0.00 | 0.00 | 0.00 | 60 | 1009.6 |
| 20260906010614 | 32 | 69 | 0.0 | 0.0 | 0.00 | 0.00 | 0.00 | 61 | 1009.6 |
| 20260906010110 | 32 | 69 | 4.8 | 9.7 | 0.00 | 0.00 | 0.00 | 61 | 1009.7 |
| 20260906005604 | 32 | 318 | 6.4 | 8.0 | 0.00 | 0.00 | 0.00 | 61 | 1009.3 |
| 20260906005103 | 32 | 335 | 3.2 | 3.2 | 0.00 | 0.00 | 0.00 | 61 | 1009.0 |
| 20260906004603 | 32 | 313 | 6.4 | 8.0 | 0.00 | 0.00 | 0.00 | 60 | 1009.1 |
| 20260906004057 | 32 | 323 | 4.8 | 4.8 | 0.00 | 0.00 | 0.00 | 60 | 1009.1 |
| 20260906003553 | 32 | 322 | 8.0 | 9.7 | 0.00 | 0.00 | 0.00 | 60 | 1009.3 |
| 20260906003049 | 32 | 315 | 4.8 | 4.8 | 0.00 | 0.00 | 0.00 | 60 | 1009.2 |
| 20260906002548 | 32 | 314 | 4.8 | 4.8 | 0.00 | 0.00 | 0.00 | 60 | 1009.3 |
| 20260906002043 | 33 | 338 | 3.2 | 4.8 | 0.00 | 0.00 | 0.00 | 59 | 1009.2 |
| 20260906001533 | 33 | 328 | 6.4 | 9.7 | 0.00 | 0.00 | 0.00 | 59 | 1009.2 |
| 20260906001027 | 33 | 303 | 4.8 | 8.0 | 0.00 | 0.00 | 0.00 | 58 | 1009.4 |
| 20260906000523 | 33 | 333 | 3.2 | 3.2 | 0.00 | 0.00 | 0.00 | 58 | 1009.5 |
| 20260906000018 | 33 | 307 | 6.4 | 9.7 | 0.00 | 0.00 | 0.00 | 58 | 1009.5 |
| 20260905235511 | 33 | 333 | 4.8 | 4.8 | 0.00 | 0.00 | 0.00 | 57 | 1009.7 |
| 20260905235007 | 33 | 320 | 4.8 | 4.8 | 0.00 | 0.00 | 0.00 | 57 | 1009.7 |
| 20260905234502 | 33 | 324 | 6.4 | 9.7 | 0.00 | 0.00 | 0.00 | 57 | 1009.6 |
| 20260905233956 | 33 | 344 | 4.8 | 4.8 | 0.00 | 0.00 | 0.00 | 57 | 1009.6 |
| 20260905233452 | 33 | 351 | 8.0 | 9.7 | 0.00 | 0.00 | 0.00 | 57 | 1009.5 |
| 20260905232950 | 33 | 352 | 1.6 | 3.2 | 0.00 | 0.00 | 0.00 | 57 | 1009.4 |
| 20260905232447 | 34 | 345 | 11.3 | 11.3 | 0.00 | 0.00 | 0.00 | 56 | 1009.4 |
| 20260905231943 | 34 | 298 | 4.8 | 8.0 | 0.00 | 0.00 | 0.00 | 56 | 1009.6 |
| 20260905231438 | 33 | 342 | 4.8 | 4.8 | 0.00 | 0.00 | 0.00 | 56 | 1009.5 |
| 20260905230934 | 33 | 323 | 8.0 | 9.7 | 0.00 | 0.00 | 0.00 | 56 | 1009.3 |
| 20260905230432 | 34 | 326 | 6.4 | 11.3 | 0.00 | 0.00 | 0.00 | 56 | 1009.4 |
| 20260905225925 | 34 | 310 | 8.0 | 9.7 | 0.00 | 0.00 | 0.00 | 56 | 1009.2 |
| 20260905225420 | 34 | 3 | 4.8 | 4.8 | 0.00 | 0.00 | 0.00 | 55 | 1009.1 |
| 20260905224915 | 35 | 321 | 11.3 | 12.9 | 0.00 | 0.00 | 0.00 | 54 | 1009.2 |
| 20260905224411 | 35 | 324 | 14.5 | 17.7 | 0.00 | 0.00 | 0.00 | 54 | 1009.4 |
| 20260905223905 | 35 | 332 | 8.0 | 9.7 | 0.00 | 0.00 | 0.00 | 53 | 1009.1 |
| 20260905223403 | 35 | 18 | 4.8 | 8.0 | 0.00 | 0.00 | 0.00 | 53 | 1009.1 |
| 20260905222858 | 35 | 10 | 8.0 | 9.7 | 0.00 | 0.00 | 0.00 | 54 | 1009.2 |
| 20260905222356 | 35 | 6 | 8.0 | 9.7 | 0.00 | 0.00 | 0.00 | 53 | 1009.2 |
| 20260905221852 | 35 | 337 | 3.2 | 3.2 | 0.00 | 0.00 | 0.00 | 52 | 1008.9 |
| 20260905221349 | 35 | 307 | 4.8 | 4.8 | 0.00 | 0.00 | 0.00 | 52 | 1009.0 |
| 20260905220839 | 35 | 282 | 4.8 | 8.0 | 0.00 | 0.00 | 0.00 | 52 | 1008.9 |
| 20260905220335 | 35 | 251 | 6.4 | 9.7 | 0.00 | 0.00 | 0.00 | 52 | 1009.1 |
| 20260905215834 | 35 | 279 | 9.7 | 11.3 | 0.00 | 0.00 | 0.00 | 51 | 1009.2 |
| 20260905215330 | 35 | 298 | 6.4 | 8.0 | 0.00 | 0.00 | 0.00 | 51 | 1009.3 |
| 20260905214826 | 35 | 359 | 3.2 | 4.8 | 0.00 | 0.00 | 0.00 | 50 | 1009.2 |
| 20260905214321 | 36 | 278 | 3.2 | 3.2 | 0.00 | 0.00 | 0.00 | 49 | 1008.9 |
| 20260905213816 | 36 | 243 | 4.8 | 4.8 | 0.00 | 0.00 | 0.00 | 49 | 1009.2 |
| 20260905213313 | 36 | 228 | 4.8 | 9.7 | 0.00 | 0.00 | 0.00 | 49 | 1009.2 |
| 20260905212812 | 36 | 291 | 11.3 | 12.9 | 0.00 | 0.00 | 0.00 | 49 | 1009.0 |
| 20260905212307 | 37 | 296 | 8.0 | 11.3 | 0.00 | 0.00 | 0.00 | 48 | 1009.2 |
| 20260905211801 | 37 | 170 | 8.0 | 11.3 | 0.00 | 0.00 | 0.00 | 47 | 1009.1 |
| 20260905211256 | 37 | 242 | 8.0 | 9.7 | 0.00 | 0.00 | 0.00 | 45 | 1009.1 |
| 20260905210753 | 37 | 305 | 6.4 | 8.0 | 0.00 | 0.00 | 0.00 | 45 | 1009.0 |
| 20260905210253 | 37 | 301 | 6.4 | 9.7 | 0.00 | 0.00 | 0.00 | 44 | 1008.9 |
| 20260905205751 | 38 | 309 | 12.9 | 12.9 | 0.00 | 0.00 | 0.00 | 44 | 1009.1 |
| 20260905205246 | 37 | 12 | 3.2 | 4.8 | 0.00 | 0.00 | 0.00 | 44 | 1009.2 |
| 20260905204746 | 37 | 302 | 11.3 | 14.5 | 0.00 | 0.00 | 0.00 | 44 | 1009.8 |
| 20260905204242 | 37 | 330 | 9.7 | 12.9 | 0.00 | 0.00 | 0.00 | 43 | 1009.3 |
| 20260905203741 | 38 | 271 | 8.0 | 9.7 | 0.00 | 0.00 | 0.00 | 43 | 1009.5 |
| 20260905203237 | 38 | 4 | 11.3 | 12.9 | 0.00 | 0.00 | 0.00 | 43 | 1009.6 |
| 20260905202732 | 37 | 35 | 6.4 | 8.0 | 0.00 | 0.00 | 0.00 | 44 | 1009.7 |
| 20260905202227 | 37 | 312 | 8.0 | 9.7 | 0.00 | 0.00 | 0.00 | 44 | 1009.6 |
| 20260905201722 | 37 | 324 | 11.3 | 14.5 | 0.00 | 0.00 | 0.00 | 44 | 1009.6 |
| 20260905201217 | 37 | 295 | 8.0 | 11.3 | 0.00 | 0.00 | 0.00 | 43 | 1009.9 |
| 20260905200712 | 38 | 17 | 8.0 | 9.7 | 0.00 | 0.00 | 0.00 | 43 | 1009.7 |
| 20260905200208 | 38 | 341 | 8.0 | 11.3 | 0.00 | 0.00 | 0.00 | 43 | 1009.7 |
| 20260905195706 | 38 | 358 | 1.6 | 1.6 | 0.00 | 0.00 | 0.00 | 44 | 1009.9 |
| 20260905195201 | 38 | 20 | 8.0 | 9.7 | 0.00 | 0.00 | 0.00 | 44 | 1009.8 |
| 20260905194656 | 38 | 233 | 8.0 | 9.7 | 0.00 | 0.00 | 0.00 | 43 | 1010.0 |
| 20260905194155 | 38 | 336 | 8.0 | 9.7 | 0.00 | 0.00 | 0.00 | 44 | 1009.8 |
| 20260905193650 | 37 | 35 | 6.4 | 8.0 | 0.00 | 0.00 | 0.00 | 45 | 1010.1 |
| 20260905193145 | 37 | 330 | 6.4 | 8.0 | 0.00 | 0.00 | 0.00 | 45 | 1010.2 |
| 20260905192640 | 37 | 333 | 6.4 | 9.7 | 0.00 | 0.00 | 0.00 | 45 | 1010.1 |
| 20260905192137 | 37 | 241 | 9.7 | 14.5 | 0.00 | 0.00 | 0.00 | 44 | 1010.4 |
| 20260905191636 | 37 | 269 | 6.4 | 8.0 | 0.00 | 0.00 | 0.00 | 43 | 1010.5 |
| 20260905191134 | 37 | 40 | 3.2 | 4.8 | 0.00 | 0.00 | 0.00 | 44 | 1010.5 |
| 20260905190627 | 37 | 352 | 6.4 | 8.0 | 0.00 | 0.00 | 0.00 | 45 | 1010.6 |
| 20260905190127 | 37 | 17 | 16.1 | 16.1 | 0.00 | 0.00 | 0.00 | 45 | 1010.6 |
| 20260905185626 | 37 | 4 | 1.6 | 1.6 | 0.00 | 0.00 | 0.00 | 47 | 1010.7 |
| 20260905185120 | 37 | 42 | 0.0 | 1.6 | 0.00 | 0.00 | 0.00 | 46 | 1010.9 |
| 20260905184615 | 37 | 339 | 11.3 | 12.9 | 0.00 | 0.00 | 0.00 | 47 | 1010.9 |
| 20260905184114 | 37 | 351 | 6.4 | 8.0 | 0.00 | 0.00 | 0.00 | 47 | 1010.9 |
| 20260905183613 | 37 | 271 | 4.8 | 4.8 | 0.00 | 0.00 | 0.00 | 48 | 1010.9 |
| 20260905183109 | 37 | 322 | 11.3 | 12.9 | 0.00 | 0.00 | 0.00 | 47 | 1010.9 |
| 20260905182608 | 37 | 301 | 1.6 | 3.2 | 0.00 | 0.00 | 0.00 | 47 | 1011.1 |
| 20260905182102 | 37 | 249 | 12.9 | 14.5 | 0.00 | 0.00 | 0.00 | 47 | 1011.1 |
| 20260905181602 | 37 | 223 | 6.4 | 8.0 | 0.00 | 0.00 | 0.00 | 47 | 1011.2 |
| 20260905181101 | 37 | 352 | 4.8 | 4.8 | 0.00 | 0.00 | 0.00 | 49 | 1011.2 |
| 20260905180556 | 36 | 89 | 0.0 | 0.0 | 0.00 | 0.00 | 0.00 | 50 | 1011.4 |
| 20260905180052 | 36 | 349 | 11.3 | 12.9 | 0.00 | 0.00 | 0.00 | 50 | 1011.5 |
| 20260905175551 | 36 | 301 | 9.7 | 11.3 | 0.00 | 0.00 | 0.00 | 51 | 1011.6 |
| 20260905175047 | 36 | 326 | 8.0 | 11.3 | 0.00 | 0.00 | 0.00 | 52 | 1011.5 |
| 20260905174542 | 37 | 317 | 8.0 | 9.7 | 0.00 | 0.00 | 0.00 | 50 | 1011.5 |
| 20260905174037 | 36 | 149 | 3.2 | 3.2 | 0.00 | 0.00 | 0.00 | 52 | 1011.8 |
| 20260905173534 | 36 | 277 | 4.8 | 8.0 | 0.00 | 0.00 | 0.00 | 52 | 1011.7 |
| 20260905173029 | 36 | 302 | 6.4 | 8.0 | 0.00 | 0.00 | 0.00 | 52 | 1011.7 |
| 20260905172527 | 36 | 35 | 6.4 | 8.0 | 0.00 | 0.00 | 0.00 | 55 | 1011.8 |
| 20260905172023 | 36 | 339 | 8.0 | 11.3 | 0.00 | 0.00 | 0.00 | 54 | 1011.9 |
| 20260905171519 | 36 | 255 | 1.6 | 3.2 | 0.00 | 0.00 | 0.00 | 54 | 1011.8 |
| 20260905171015 | 36 | 232 | 4.8 | 4.8 | 0.00 | 0.00 | 0.00 | 55 | 1011.9 |
| 20260905170511 | 36 | 279 | 4.8 | 9.7 | 0.00 | 0.00 | 0.00 | 55 | 1011.8 |
| 20260905170007 | 36 | 347 | 4.8 | 4.8 | 0.00 | 0.00 | 0.00 | 56 | 1011.9 |
| 20260905165501 | 35 | 353 | 3.2 | 4.8 | 0.00 | 0.00 | 0.00 | 56 | 1012.1 |
| 20260905164955 | 35 | 269 | 8.0 | 9.7 | 0.00 | 0.00 | 0.00 | 57 | 1012.3 |
| 20260905164450 | 35 | 15 | 1.6 | 1.6 | 0.00 | 0.00 | 0.00 | 56 | 1012.0 |
| 20260905163944 | 35 | 58 | 0.0 | 0.0 | 0.00 | 0.00 | 0.00 | 56 | 1012.4 |
| 20260905163441 | 35 | 319 | 6.4 | 8.0 | 0.00 | 0.00 | 0.00 | 56 | 1012.4 |
| 20260905162937 | 35 | 42 | 11.3 | 14.5 | 0.00 | 0.00 | 0.00 | 56 | 1012.6 |
| 20260905162432 | 35 | 1 | 8.0 | 9.7 | 0.00 | 0.00 | 0.00 | 56 | 1012.9 |
| 20260905161927 | 35 | 34 | 3.2 | 3.2 | 0.00 | 0.00 | 0.00 | 56 | 1012.7 |
| 20260905161426 | 35 | 319 | 9.7 | 12.9 | 0.00 | 0.00 | 0.00 | 56 | 1012.8 |
| 20260905160924 | 35 | 323 | 3.2 | 3.2 | 0.00 | 0.00 | 0.00 | 57 | 1012.8 |
| 20260905160418 | 35 | 346 | 8.0 | 9.7 | 0.00 | 0.00 | 0.00 | 58 | 1012.7 |
| 20260905155913 | 34 | 331 | 9.7 | 11.3 | 0.00 | 0.00 | 0.00 | 59 | 1012.7 |
| 20260905155413 | 34 | 8 | 8.0 | 9.7 | 0.00 | 0.00 | 0.00 | 58 | 1012.7 |
| 20260905154911 | 34 | 308 | 4.8 | 8.0 | 0.00 | 0.00 | 0.00 | 59 | 1012.9 |
| 20260905154407 | 34 | 240 | 3.2 | 4.8 | 0.00 | 0.00 | 0.00 | 61 | 1012.9 |
| 20260905153903 | 34 | 308 | 4.8 | 4.8 | 0.00 | 0.00 | 0.00 | 61 | 1013.0 |
| 20260905153359 | 35 | 147 | 0.0 | 1.6 | 0.00 | 0.00 | 0.00 | 58 | 1012.8 |
| 20260905152858 | 33 | 76 | 0.0 | 0.0 | 0.00 | 0.00 | 0.00 | 60 | 1012.8 |
| 20260905152357 | 33 | 169 | 3.2 | 3.2 | 0.00 | 0.00 | 0.00 | 61 | 1012.7 |
| 20260905151853 | 33 | 121 | 3.2 | 3.2 | 0.00 | 0.00 | 0.00 | 61 | 1012.7 |
| 20260905151348 | 34 | 54 | 0.0 | 0.0 | 0.00 | 0.00 | 0.00 | 60 | 1012.8 |
| 20260905150843 | 33 | 78 | 0.0 | 1.6 | 0.00 | 0.00 | 0.00 | 60 | 1012.7 |
| 20260905150337 | 32 | 236 | 1.6 | 3.2 | 0.00 | 0.00 | 0.00 | 63 | 1012.8 |
| 20260905145834 | 32 | 262 | 1.6 | 3.2 | 0.00 | 0.00 | 0.00 | 63 | 1012.9 |
| 20260905145329 | 33 | 234 | 3.2 | 4.8 | 0.00 | 0.00 | 0.00 | 61 | 1012.7 |
| 20260905144828 | 32 | 47 | 0.0 | 0.0 | 0.00 | 0.00 | 0.00 | 64 | 1012.8 |
| 20260905144323 | 32 | 115 | 3.2 | 3.2 | 0.00 | 0.00 | 0.00 | 65 | 1012.9 |
| 20260905143822 | 32 | 209 | 4.8 | 4.8 | 0.00 | 0.00 | 0.00 | 63 | 1012.7 |
| 20260905143316 | 32 | 118 | 1.6 | 1.6 | 0.00 | 0.00 | 0.00 | 65 | 1012.6 |
| 20260905142816 | 32 | 236 | 1.6 | 1.6 | 0.00 | 0.00 | 0.00 | 65 | 1012.9 |
| 20260905142310 | 31 | 197 | 3.2 | 3.2 | 0.00 | 0.00 | 0.00 | 66 | 1012.9 |
| 20260905141806 | 31 | 167 | 3.2 | 3.2 | 0.00 | 0.00 | 0.00 | 66 | 1013.1 |
| 20260905141301 | 31 | 81 | 1.6 | 1.6 | 0.00 | 0.00 | 0.00 | 65 | 1013.0 |
| 20260905140757 | 31 | 162 | 1.6 | 3.2 | 0.00 | 0.00 | 0.00 | 65 | 1013.0 |
| 20260905140256 | 31 | 48 | 0.0 | 1.6 | 0.00 | 0.00 | 0.00 | 65 | 1013.0 |
| 20260905135755 | 31 | 330 | 0.0 | 1.6 | 0.00 | 0.00 | 0.00 | 65 | 1012.8 |
| 20260905135252 | 31 | 127 | 1.6 | 1.6 | 0.00 | 0.00 | 0.00 | 66 | 1013.1 |
| 20260905134751 | 30 | 290 | 1.6 | 1.6 | 0.00 | 0.00 | 0.00 | 69 | 1013.0 |
| 20260905134245 | 31 | 354 | 3.2 | 3.2 | 0.00 | 0.00 | 0.00 | 67 | 1013.1 |
| 20260905133739 | 31 | 332 | 1.6 | 1.6 | 0.00 | 0.00 | 0.00 | 66 | 1013.0 |
| 20260905133235 | 31 | 52 | 0.0 | 0.0 | 0.00 | 0.00 | 0.00 | 65 | 1013.2 |
| 20260905132734 | 31 | 302 | 0.0 | 0.0 | 0.00 | 0.00 | 0.00 | 66 | 1013.0 |
| 20260905132230 | 30 | 350 | 0.0 | 1.6 | 0.00 | 0.00 | 0.00 | 68 | 1013.1 |
| 20260905131724 | 30 | 204 | 1.6 | 1.6 | 0.00 | 0.00 | 0.00 | 69 | 1013.1 |
| 20260905131220 | 30 | 85 | 0.0 | 0.0 | 0.00 | 0.00 | 0.00 | 70 | 1013.2 |
| 20260905130714 | 30 | 111 | 1.6 | 1.6 | 0.00 | 0.00 | 0.00 | 71 | 1013.2 |
| 20260905130214 | 30 | 186 | 0.0 | 1.6 | 0.00 | 0.00 | 0.00 | 71 | 1013.2 |
| 20260905125709 | 29 | 103 | 0.0 | 1.6 | 0.00 | 0.00 | 0.00 | 72 | 1013.2 |
| 20260905125204 | 28 | 70 | 0.0 | 1.6 | 0.00 | 0.00 | 0.00 | 75 | 1013.1 |
| 20260905124700 | 28 | 185 | 1.6 | 1.6 | 0.00 | 0.00 | 0.00 | 76 | 1013.1 |
| 20260905124156 | 29 | 101 | 1.6 | 1.6 | 0.00 | 0.00 | 0.00 | 76 | 1012.9 |
| 20260905123650 | 29 | 212 | 1.6 | 1.6 | 0.00 | 0.00 | 0.00 | 73 | 1012.8 |
| 20260905123148 | 28 | 197 | 1.6 | 3.2 | 0.00 | 0.00 | 0.00 | 71 | 1013.0 |
| 20260905122647 | 28 | 80 | 0.0 | 0.0 | 0.00 | 0.00 | 0.00 | 72 | 1013.1 |
| 20260905122143 | 28 | 45 | 0.0 | 0.0 | 0.00 | 0.00 | 0.00 | 73 | 1013.0 |
| 20260905121643 | 27 | 52 | 0.0 | 0.0 | 0.00 | 0.00 | 0.00 | 75 | 1013.2 |
| 20260905121138 | 27 | 44 | 0.0 | 0.0 | 0.00 | 0.00 | 0.00 | 76 | 1013.0 |
| 20260905120637 | 27 | 258 | 0.0 | 1.6 | 0.00 | 0.00 | 0.00 | 77 | 1012.9 |
| 20260905120132 | 27 | 331 | 1.6 | 3.2 | 0.00 | 0.00 | 0.00 | 77 | 1013.0 |
| 20260905115632 | 27 | 343 | 1.6 | 1.6 | 0.00 | 0.00 | 0.00 | 77 | 1013.0 |
| 20260905115127 | 27 | 5 | 0.0 | 0.0 | 0.00 | 0.00 | 0.00 | 78 | 1012.9 |
| 20260905114626 | 27 | 12 | 1.6 | 1.6 | 0.00 | 0.00 | 0.00 | 78 | 1012.9 |
| 20260905114124 | 27 | 41 | 0.0 | 0.0 | 0.00 | 0.00 | 0.00 | 78 | 1012.3 |
| 20260905113614 | 27 | 38 | 0.0 | 0.0 | 0.00 | 0.00 | 0.00 | 78 | 1012.5 |